timestamp,surface_pressure_avg,surface_temp_avg,battery_voltage,lat,long
2020-03-21 00:09:01+00:00,317.7714,0.5,12.65,47.84626,-54.09684
2020-03-21 00:19:01+00:00,316.9147,0.5,12.65,47.84626,-54.09684
2020-03-21 00:29:01+00:00,302.8497,0.5,12.65,47.84626,-54.09684
2020-03-21 00:39:01+00:00,291.5065,0.5,12.65,47.84626,-54.09684
2020-03-21 00:49:01+00:00,287.9247,0.49,12.65,47.84626,-54.09684
2020-03-21 00:59:01+00:00,280.6197,0.4,12.65,47.84626,-54.09684
2020-03-21 01:09:01+00:00,270.3531,0.4,12.65,47.84626,-54.09684
2020-03-21 01:19:01+00:00,266.5497,0.4,12.65,47.84626,-54.09684
2020-03-21 01:29:01+00:00,263.1731,0.4,12.65,47.84626,-54.09684
2020-03-21 01:39:01+00:00,250.1397,0.4,12.65,47.84626,-54.09684
2020-03-21 01:49:01+00:00,239.1264,0.4,12.65,47.84626,-54.09684
2020-03-21 01:59:01+00:00,236.4731,0.4,12.65,47.84626,-54.09684
2020-03-21 02:09:01+00:00,231.2481,0.39,12.65,47.84626,-54.09684
2020-03-21 02:19:01+00:00,222.1248,0.39,12.65,47.84626,-54.09684
2020-03-21 02:29:01+00:00,217.7264,0.4,12.65,47.84626,-54.09684
2020-03-21 02:39:01+00:00,220.9398,0.4,12.65,47.84626,-54.09684
2020-03-21 02:49:01+00:00,222.3648,0.4,12.65,47.84626,-54.09684
2020-03-21 02:59:01+00:00,216.5814,0.4,12.65,47.84626,-54.09684
2020-03-21 03:09:01+00:00,214.0481,0.4,12.65,47.84626,-54.09684
2020-03-21 03:19:01+00:00,218.6497,0.4,12.65,47.84626,-54.09684
2020-03-21 03:29:01+00:00,220.5764,0.4,12.65,47.84626,-54.09684
2020-03-21 03:39:01+00:00,222.1981,0.4,12.65,47.84626,-54.09684
2020-03-21 03:49:01+00:00,222.5614,0.4,12.65,47.84626,-54.09684
2020-03-21 03:59:01+00:00,219.4181,0.45,12.65,47.84626,-54.09684
2020-03-21 04:09:01+00:00,218.5931,0.48,12.65,47.84626,-54.09684
2020-03-21 04:19:01+00:00,218.0114,0.49,12.57,47.84626,-54.09684
2020-03-21 04:29:01+00:00,218.5231,0.5,12.57,47.84626,-54.09684
2020-03-21 04:39:01+00:00,216.6514,0.5,12.57,47.84626,-54.09684
2020-03-21 04:49:01+00:00,217.7014,0.5,12.57,47.84626,-54.09684
2020-03-21 04:59:01+00:00,222.7848,0.5,12.57,47.84626,-54.09684
2020-03-21 05:09:01+00:00,220.1631,0.5,12.57,47.84626,-54.09684
2020-03-21 05:19:01+00:00,215.1848,0.5,12.57,47.84626,-54.09684
2020-03-21 05:29:01+00:00,224.0298,0.5,12.57,47.84626,-54.09684
2020-03-21 05:39:01+00:00,233.7297,0.5,12.57,47.84626,-54.09684
2020-03-21 05:49:01+00:00,234.1447,0.5,12.57,47.84626,-54.09684
2020-03-21 05:59:01+00:00,238.6064,0.5,12.57,47.84626,-54.09684
2020-03-21 06:09:01+00:00,244.6081,0.5,12.57,47.84626,-54.09684
2020-03-21 06:19:01+00:00,243.5114,0.5,12.57,47.84626,-54.09684
2020-03-21 06:29:01+00:00,239.1114,0.5,12.57,47.84626,-54.09684
2020-03-21 06:39:01+00:00,242.0181,0.5,12.57,47.84626,-54.09684
2020-03-21 06:49:01+00:00,253.1981,0.5,12.57,47.84626,-54.09684
2020-03-21 06:59:01+00:00,256.9997,0.5,12.57,47.84626,-54.09684
2020-03-21 07:09:01+00:00,256.1581,0.5,12.57,47.84626,-54.09684
2020-03-21 07:19:01+00:00,263.4947,0.5,12.57,47.84626,-54.09684
2020-03-21 07:29:01+00:00,274.263,0.5,12.57,47.84626,-54.09684
2020-03-21 07:39:01+00:00,274.783,0.53,12.57,47.84626,-54.09684
2020-03-21 07:49:01+00:00,277.243,0.58,12.57,47.84626,-54.09684
2020-03-21 07:59:01+00:00,284.5363,0.52,12.57,47.84626,-54.09684
2020-03-21 08:09:01+00:00,280.4297,0.54,12.57,47.84626,-54.09684
2020-03-21 08:19:01+00:00,277.1248,0.56,12.57,47.84626,-54.09684
2020-03-21 08:29:01+00:00,286.8831,0.55,12.57,47.84626,-54.09684
2020-03-21 08:39:01+00:00,291.6564,0.56,12.57,47.84626,-54.09684
2020-03-21 08:49:01+00:00,282.1464,0.58,12.57,47.84626,-54.09684
2020-03-21 08:59:01+00:00,285.5747,0.58,12.57,47.84626,-54.09684
2020-03-21 09:09:01+00:00,296.8747,0.59,12.57,47.84626,-54.09684
2020-03-21 09:19:01+00:00,300.1547,0.59,12.57,47.84626,-54.09684
2020-03-21 09:29:01+00:00,295.3113,0.59,12.57,47.84626,-54.09684
2020-03-21 09:39:01+00:00,297.2447,0.57,12.57,47.84626,-54.09684
2020-03-21 09:49:01+00:00,300.5663,0.57,12.57,47.84626,-54.09684
2020-03-21 09:59:01+00:00,292.9947,0.57,12.57,47.84626,-54.09684
2020-03-21 10:09:01+00:00,278.6197,0.58,12.57,47.84626,-54.09684
2020-03-21 10:19:01+00:00,279.7847,0.59,12.57,47.84626,-54.09684
2020-03-21 10:29:01+00:00,289.5964,0.58,12.57,47.84626,-54.09684
2020-03-21 10:39:01+00:00,289.2531,0.59,12.57,47.84626,-54.09684
2020-03-21 10:49:01+00:00,281.8497,0.57,12.57,47.84626,-54.09684
2020-03-21 10:59:01+00:00,289.4614,0.54,12.57,47.84626,-54.09684
2020-03-21 11:09:01+00:00,291.8313,0.54,12.57,47.84626,-54.09684
2020-03-21 11:19:01+00:00,290.6547,0.5,12.57,47.84626,-54.09684
2020-03-21 11:29:01+00:00,292.2014,0.5,12.57,47.84626,-54.09684
2020-03-21 11:39:01+00:00,293.1114,0.5,12.57,47.84626,-54.09684
2020-03-21 11:49:01+00:00,289.8181,0.5,12.57,47.84626,-54.09684
2020-03-21 11:59:01+00:00,286.1464,0.5,12.57,47.84626,-54.09684
2020-03-21 12:09:01+00:00,281.7147,0.54,12.57,47.84626,-54.09684
2020-03-21 12:19:01+00:00,279.8831,0.58,12.65,47.84626,-54.09684
2020-03-21 12:29:01+00:00,279.8031,0.59,12.65,47.84626,-54.09684
2020-03-21 12:39:01+00:00,274.4397,0.59,12.65,47.84626,-54.09684
2020-03-21 12:49:01+00:00,263.6814,0.6,12.65,47.84626,-54.09684
2020-03-21 12:59:01+00:00,265.1881,0.59,12.65,47.84626,-54.09684
2020-03-21 13:09:01+00:00,258.7548,0.5,12.65,47.84626,-54.09684
2020-03-21 13:19:01+00:00,244.9631,0.5,13.76,47.84626,-54.09684
2020-03-21 13:29:01+00:00,240.5031,0.5,13.76,47.84626,-54.09684
2020-03-21 13:39:01+00:00,239.083,0.5,13.76,47.84626,-54.09684
2020-03-21 13:49:01+00:00,231.5647,0.49,13.76,47.84626,-54.09684
2020-03-21 13:59:01+00:00,218.1964,0.5,13.76,47.84626,-54.09684
2020-03-21 14:09:01+00:00,209.3665,0.49,13.76,47.84626,-54.09684
2020-03-21 14:19:01+00:00,207.9098,0.47,14.72,47.84626,-54.09684
2020-03-21 14:29:01+00:00,203.5314,0.45,14.72,47.84626,-54.09684
2020-03-21 14:39:01+00:00,197.3465,0.44,14.72,47.84626,-54.09684
2020-03-21 14:49:01+00:00,192.4881,0.45,14.72,47.84626,-54.09684
2020-03-21 14:59:01+00:00,187.9015,0.46,14.72,47.84626,-54.09684
2020-03-21 15:09:01+00:00,183.7765,0.48,14.72,47.84626,-54.09684
2020-03-21 15:19:01+00:00,187.5331,0.49,14.56,47.84626,-54.09684
2020-03-21 15:29:01+00:00,192.2065,0.47,14.56,47.84626,-54.09684
2020-03-21 15:39:01+00:00,187.6581,0.46,14.56,47.84626,-54.09684
2020-03-21 15:49:01+00:00,184.2898,0.48,14.56,47.84626,-54.09684
2020-03-21 15:59:01+00:00,185.8265,0.51,14.56,47.84626,-54.09684
2020-03-21 16:09:01+00:00,180.2465,0.68,14.56,47.84626,-54.09684
2020-03-21 16:19:01+00:00,174.6931,0.76,14.64,47.84626,-54.09684
2020-03-21 16:29:01+00:00,185.3381,0.8,14.64,47.84626,-54.09684
2020-03-21 16:39:01+00:00,185.7598,0.8,14.64,47.84626,-54.09684
2020-03-21 16:49:01+00:00,173.3682,0.8,14.64,47.84626,-54.09684
2020-03-21 16:59:01+00:00,178.0848,0.77,14.64,47.84626,-54.09684
2020-03-21 17:09:01+00:00,192.7148,0.78,14.64,47.84626,-54.09684
2020-03-21 17:19:01+00:00,188.6231,0.78,14.56,47.84626,-54.09684
2020-03-21 17:29:01+00:00,182.2948,0.79,14.56,47.84626,-54.09684
2020-03-21 17:39:01+00:00,190.1481,0.8,14.56,47.84626,-54.09684
2020-03-21 17:49:01+00:00,191.4698,0.74,14.56,47.84626,-54.09684
2020-03-21 17:59:01+00:00,187.5498,0.7,14.56,47.84626,-54.09684
2020-03-21 18:09:01+00:00,195.4297,0.7,14.56,47.84626,-54.09684
2020-03-21 18:19:01+00:00,201.7331,0.7,14.32,47.84626,-54.09684
2020-03-21 18:29:01+00:00,202.6548,0.68,14.32,47.84626,-54.09684
2020-03-21 18:39:01+00:00,210.4031,0.6,14.32,47.84626,-54.09684
2020-03-21 18:49:01+00:00,222.4681,0.6,14.32,47.84626,-54.09684
2020-03-21 18:59:01+00:00,228.2281,0.6,14.32,47.84626,-54.09684
2020-03-21 19:09:01+00:00,228.2148,0.64,14.32,47.84626,-54.09684
2020-03-21 19:19:01+00:00,233.4715,0.69,14.08,47.84626,-54.09684
2020-03-21 19:29:01+00:00,240.6681,0.7,14.08,47.84626,-54.09684
2020-03-21 19:39:01+00:00,247.2997,0.76,14.08,47.84626,-54.09684
2020-03-21 19:49:01+00:00,251.3364,0.8,14.08,47.84626,-54.09684
2020-03-21 19:59:01+00:00,257.248,0.8,14.08,47.84626,-54.09684
2020-03-21 20:09:01+00:00,261.643,0.8,14.08,47.84626,-54.09684
2020-03-21 20:19:01+00:00,266.6564,0.8,13.92,47.84626,-54.09684
2020-03-21 20:29:01+00:00,273.3914,0.8,13.92,47.84626,-54.09684
2020-03-21 20:39:01+00:00,282.3247,0.8,13.92,47.84626,-54.09684
2020-03-21 20:49:01+00:00,293.0714,0.8,13.92,47.84626,-54.09684
2020-03-21 20:59:01+00:00,298.8746,0.8,13.92,47.84626,-54.09684
2020-03-21 21:09:01+00:00,299.4447,0.8,13.92,47.84626,-54.09684
2020-03-21 21:19:01+00:00,303.4163,0.8,13.68,47.84626,-54.09684
2020-03-21 21:29:01+00:00,318.508,0.8,13.68,47.84626,-54.09684
2020-03-21 21:39:01+00:00,318.313,0.8,13.68,47.84626,-54.09684
2020-03-21 21:49:01+00:00,308.043,0.8,13.68,47.84626,-54.09684
2020-03-21 21:59:01+00:00,316.0779,0.8,13.68,47.84626,-54.09684
2020-03-21 22:09:01+00:00,332.4979,0.8,13.68,47.84626,-54.09684
2020-03-21 22:19:01+00:00,331.3914,0.8,13.29,47.84626,-54.09684
2020-03-21 22:29:01+00:00,320.7646,0.8,13.29,47.84626,-54.09684
2020-03-21 22:39:01+00:00,330.5946,0.8,13.29,47.84626,-54.09684
2020-03-21 22:49:01+00:00,340.5546,0.8,13.29,47.84626,-54.09684
2020-03-21 22:59:01+00:00,333.5463,0.8,13.29,47.84626,-54.09684
2020-03-21 23:09:01+00:00,330.9530000000001,0.8,13.29,47.84626,-54.09684
2020-03-21 23:19:01+00:00,337.3797,0.79,12.89,47.84626,-54.09684
2020-03-21 23:29:01+00:00,340.8329,0.78,12.89,47.84626,-54.09684
2020-03-21 23:39:01+00:00,327.8897,0.73,12.89,47.84626,-54.09684
2020-03-21 23:49:01+00:00,327.1396,0.71,12.89,47.84626,-54.09684
2020-03-21 23:59:01+00:00,331.80300000000005,0.73,12.89,47.84626,-54.09684
